N7QNM-10 Weather Reports


Display with metric or nautical units.
time (UTC)temp
F
wind
direction
speed
MPH
gust
MPH
rain 1hr
in
rain 24hr
in
rain mn
in
humidity
%
barometer
mb
20170818143017 57 315 0.0 0.0 0.00 0.00 0.00 77 1015.7
20170818142502 57 306 0.0 0.0 0.00 0.00 0.00 77 1016.1
20170818141946 57 315 1.0 1.0 0.00 0.00 0.00 79 1015.6
20170818141442 57 315 0.0 0.0 0.00 0.00 0.00 78 1015.4
20170818140926 57 315 0.0 0.0 0.00 0.00 0.00 77 1015.2
20170818140411 56 315 0.0 0.0 0.00 0.00 0.00 77 1015.2
20170818135855 56 306 0.0 0.0 0.00 0.00 0.00 81 1015.3
20170818135350 55 306 0.0 0.0 0.00 0.00 0.00 79 1015.2
20170818134845 54 315 1.0 1.0 0.00 0.00 0.00 78 1015.4
20170818134340 54 315 0.0 1.0 0.00 0.00 0.00 79 1015.6
20170818133835 53 306 0.0 0.0 0.00 0.00 0.00 77 1015.3
20170818133320 53 315 0.0 1.0 0.00 0.00 0.00 77 1015.9
20170818132814 53 315 0.0 1.0 0.00 0.00 0.00 74 1016.1
20170818132309 53 315 0.0 0.0 0.00 0.00 0.00 74 1016.1
20170818131804 53 315 0.0 0.0 0.00 0.00 0.00 74 1015.9
20170818131259 53 315 0.0 1.0 0.00 0.00 0.00 73 1015.9
20170818130754 53 315 0.0 0.0 0.00 0.00 0.00 72 1015.9
20170818130248 53 315 0.0 0.0 0.00 0.00 0.00 72 1015.9
20170818125743 53 315 2.0 2.0 0.00 0.00 0.00 72 1015.9
20170818125238 53 315 0.0 0.0 0.00 0.00 0.00 72 1015.9
20170818124733 54 315 0.0 0.0 0.00 0.00 0.00 73 1016.1
20170818124228 54 315 0.0 0.0 0.00 0.00 0.00 74 1016.0
20170818123722 54 315 1.0 1.0 0.00 0.00 0.00 75 1016.1
20170818123217 54 315 0.0 1.0 0.00 0.00 0.00 75 1015.9
20170818122712 53 315 1.0 1.0 0.00 0.00 0.00 75 1015.8
20170818122207 53 315 2.0 2.0 0.00 0.00 0.00 75 1015.9
20170818121702 53 315 0.0 1.0 0.00 0.00 0.00 73 1015.7
20170818121157 53 315 1.0 1.0 0.00 0.00 0.00 73 1015.6
20170818120651 54 315 1.0 2.0 0.00 0.00 0.00 72 1015.7
20170818120147 54 315 0.0 1.0 0.00 0.00 0.00 71 1015.7
20170818115641 54 315 0.0 1.0 0.00 0.00 0.00 70 1015.7
20170818115137 54 315 0.0 0.0 0.00 0.00 0.00 69 1015.5
20170818114631 54 315 0.0 1.0 0.00 0.00 0.00 68 1015.5
20170818114125 55 315 0.0 1.0 0.00 0.00 0.00 68 1015.5
20170818113620 55 315 0.0 1.0 0.00 0.00 0.00 68 1015.2
20170818113115 55 315 0.0 0.0 0.00 0.00 0.00 68 1015.4
20170818112610 55 315 0.0 1.0 0.00 0.00 0.00 68 1015.3
20170818112105 55 315 1.0 1.0 0.00 0.00 0.00 69 1015.4
20170818111600 55 315 0.0 0.0 0.00 0.00 0.00 70 1015.3
20170818111055 55 315 1.0 1.0 0.00 0.00 0.00 69 1015.4
20170818110549 55 315 1.0 1.0 0.00 0.00 0.00 67 1015.2
20170818110044 55 315 0.0 1.0 0.00 0.00 0.00 66 1015.2
20170818105539 55 315 0.0 1.0 0.00 0.00 0.00 65 1015.3
20170818105034 55 315 0.0 0.0 0.00 0.00 0.00 64 1015.2
20170818104528 56 315 0.0 1.0 0.00 0.00 0.00 64 1015.3
20170818103515 56 315 0.0 1.0 0.00 0.00 0.00 62 1015.2
20170818103010 56 315 0.0 0.0 0.00 0.00 0.00 62 1015.1
20170818102505 57 315 0.0 0.0 0.00 0.00 0.00 62 1015.2
20170818102000 57 315 0.0 0.0 0.00 0.00 0.00 62 1015.3
20170818101454 57 315 0.0 0.0 0.00 0.00 0.00 64 1015.4
20170818100949 57 315 1.0 2.0 0.00 0.00 0.00 64 1015.2
20170818100909 60 315 1.0 1.0 0.00 0.00 0.00 57 1015.3
20170818100444 57 315 0.0 0.0 0.00 0.00 0.00 63 1015.2
20170818095939 57 315 0.0 1.0 0.00 0.00 0.00 62 1015.3
20170818095733 60 315 0.0 1.0 0.00 0.00 0.00 56 1015.3
20170818095434 57 315 0.0 1.0 0.00 0.00 0.00 61 1015.5
20170818094928 58 315 0.0 1.0 0.00 0.00 0.00 61 1015.6
20170818094423 58 315 1.0 2.0 0.00 0.00 0.00 60 1015.5
20170818093918 58 315 0.0 0.0 0.00 0.00 0.00 59 1015.5
20170818093413 58 315 0.0 1.0 0.00 0.00 0.00 58 1015.5
20170818092908 58 315 1.0 1.0 0.00 0.00 0.00 59 1015.5
20170818092403 58 315 0.0 0.0 0.00 0.00 0.00 60 1015.4
20170818091352 59 315 0.0 2.0 0.00 0.00 0.00 58 1015.3
20170818090847 59 315 1.0 2.0 0.00 0.00 0.00 57 1015.4
20170818090342 60 315 1.0 1.0 0.00 0.00 0.00 57 1015.3
20170818090329 61 315 0.0 1.0 0.00 0.00 0.00 56 1015.3
20170818085837 60 315 0.0 1.0 0.00 0.00 0.00 56 1015.3
20170818085331 61 315 0.0 0.0 0.00 0.00 0.00 56 1015.3
20170818084826 61 315 0.0 1.0 0.00 0.00 0.00 56 1015.3
20170818084411 61 315 1.0 1.0 0.00 0.00 0.00 55 1015.3
20170818084321 61 315 1.0 1.0 0.00 0.00 0.00 55 1015.3
20170818084154 61 270 0.0 1.0 0.00 0.00 0.00 56 1015.4
20170818084005 61 270 0.0 2.0 0.00 0.00 0.00 55 1015.4
20170818083816 61 270 0.0 0.0 0.00 0.00 0.00 55 1015.2
20170818083311 61 270 0.0 0.0 0.00 0.00 0.00 56 1015.3
20170818082924 62 270 1.0 1.0 0.00 0.00 0.00 53 1015.5
20170818082805 61 270 0.0 1.0 0.00 0.00 0.00 56 1015.4
20170818082300 61 270 0.0 2.0 0.00 0.00 0.00 55 1015.4
20170818081755 62 270 1.0 1.0 0.00 0.00 0.00 53 1015.5
20170818081718 62 270 2.0 2.0 0.00 0.00 0.00 53 1015.5
20170818081250 62 270 2.0 2.0 0.00 0.00 0.00 53 1015.5
20170818080937 62 270 0.0 1.0 0.00 0.00 0.00 53 1015.7
20170818080745 62 270 0.0 1.0 0.00 0.00 0.00 53 1015.7
20170818080240 63 270 0.0 2.0 0.00 0.00 0.00 52 1015.5
20170818075857 63 270 1.0 1.0 0.00 0.00 0.00 51 1015.4
20170818075735 63 270 1.0 1.0 0.00 0.00 0.00 51 1015.4
20170818075230 64 270 2.0 2.0 0.00 0.00 0.00 48 1015.2
20170818074724 65 270 0.0 3.0 0.00 0.00 0.00 45 1015.1
20170818074219 67 270 3.0 4.0 0.00 0.00 0.00 42 1015.4
20170818073714 66 270 1.0 3.0 0.00 0.00 0.00 39 1015.4
20170818073306 65 270 1.0 2.0 0.00 0.00 0.00 45 1015.4
20170818073208 65 270 1.0 2.0 0.00 0.00 0.00 45 1015.4
20170818072703 63 0 1.0 1.0 0.00 0.00 0.00 48 1015.1
20170818072158 64 0 1.0 2.0 0.00 0.00 0.00 50 1015.4
20170818071653 64 0 0.0 2.0 0.00 0.00 0.00 50 1015.4
20170818071148 65 0 0.0 1.0 0.00 0.00 0.00 49 1015.3
20170818071042 65 0 0.0 1.0 0.00 0.00 0.00 49 1015.1
20170818070643 65 0 0.0 1.0 0.00 0.00 0.00 49 1015.1
20170818070138 65 0 1.0 1.0 0.00 0.00 0.00 48 1015.1
20170818065633 65 0 2.0 2.0 0.00 0.00 0.00 48 1015.1
20170818065127 65 0 1.0 2.0 0.00 0.00 0.00 46 1015.1
20170818064117 66 0 0.0 0.0 0.00 0.00 0.00 44 1015.2
20170818063611 67 0 0.0 0.0 0.00 0.00 0.00 45 1015.2
20170818063106 67 0 0.0 1.0 0.00 0.00 0.00 42 1015.3
20170818062601 68 315 0.0 1.0 0.00 0.00 0.00 42 1015.3
20170818062056 68 315 1.0 1.0 0.00 0.00 0.00 41 1015.3
20170818061551 68 315 1.0 1.0 0.00 0.00 0.00 41 1015.1
20170818061046 68 315 1.0 1.0 0.00 0.00 0.00 42 1015.1
20170818060541 69 315 1.0 2.0 0.00 0.00 0.00 42 1015.1
20170818060035 69 315 0.0 1.0 0.00 0.00 0.00 41 1015.2
20170818055530 69 315 0.0 2.0 0.00 0.00 0.00 42 1015.1
20170818055025 69 315 0.0 2.0 0.00 0.00 0.00 43 1015.0
20170818054520 69 315 1.0 2.0 0.00 0.00 0.00 42 1015.0
20170818054014 69 315 0.0 2.0 0.00 0.00 0.00 42 1014.9
20170818053509 69 315 0.0 1.0 0.00 0.00 0.00 41 1014.8
20170818053004 69 315 1.0 1.0 0.00 0.00 0.00 41 1014.9
20170818052459 69 315 0.0 0.0 0.00 0.00 0.00 40 1014.7
20170818051954 70 315 0.0 1.0 0.00 0.00 0.00 40 1014.7
20170818051449 70 315 0.0 1.0 0.00 0.00 0.00 40 1014.6
20170818050943 71 315 0.0 3.0 0.00 0.00 0.00 40 1014.9
20170818050438 72 315 1.0 3.0 0.00 0.00 0.00 36 1014.7
20170818045933 74 315 1.0 3.0 0.00 0.00 0.00 35 1014.6
20170818045428 75 315 2.0 4.0 0.00 0.00 0.00 32 1014.4
20170818044923 77 315 3.0 4.0 0.00 0.00 0.00 30 1014.5
20170818044417 79 315 3.0 4.0 0.00 0.00 0.00 28 1014.4
20170818043913 82 315 3.0 5.0 0.00 0.00 0.00 21 1014.4
20170818043407 82 315 6.0 11.0 0.00 0.00 0.00 20 1014.3
20170818042902 82 315 10.0 11.0 0.00 0.00 0.00 20 1013.9
20170818042357 83 315 13.0 13.0 0.00 0.00 0.00 19 1013.9
20170818041852 83 315 11.0 14.0 0.00 0.00 0.00 20 1013.9
20170818041346 82 315 10.0 13.0 0.00 0.00 0.00 19 1014.0
20170818040926 82 315 10.0 10.0 0.00 0.00 0.00 19 1014.0
20170818040841 82 315 10.0 10.0 0.00 0.00 0.00 19 1014.0
20170818040336 82 315 6.0 6.0 0.00 0.00 0.00 20 1014.1
20170818035831 82 315 1.0 3.0 0.00 0.00 0.00 19 1014.1
20170818035326 83 315 2.0 4.0 0.00 0.00 0.00 19 1014.0
20170818034820 84 315 1.0 6.0 0.00 0.00 0.00 18 1014.0
20170818034315 84 315 4.0 9.0 0.00 0.00 0.00 17 1013.9
20170818033810 84 315 7.0 9.0 0.00 0.00 0.00 17 1013.9
20170818033305 84 315 6.0 10.0 0.00 0.00 0.00 18 1014.0
20170818032800 85 315 10.0 10.0 0.00 0.00 0.00 17 1014.0
20170818032255 85 315 5.0 10.0 0.00 0.00 0.00 15 1014.0
20170818031749 84 315 6.0 10.0 0.00 0.00 0.00 16 1014.0
20170818031244 84 315 7.0 9.0 0.00 0.00 0.00 16 1013.6
20170818030739 84 315 6.0 6.0 0.00 0.00 0.00 18 1013.9
20170818030234 84 315 5.0 9.0 0.00 0.00 0.00 18 1013.9
20170818025729 85 315 8.0 9.0 0.00 0.00 0.00 19 1014.0
20170818025223 85 315 8.0 9.0 0.00 0.00 0.00 19 1013.9
20170818024718 86 315 1.0 7.0 0.00 0.00 0.00 18 1013.9
20170818024214 86 315 9.0 11.0 0.00 0.00 0.00 18 1013.9
20170818023708 86 315 9.0 10.0 0.00 0.00 0.00 18 1013.9
20170818023203 87 315 7.0 8.0 0.00 0.00 0.00 18 1013.8
20170818022658 87 315 8.0 8.0 0.00 0.00 0.00 18 1013.9
20170818022152 88 315 4.0 6.0 0.00 0.00 0.00 18 1013.9
20170818021647 88 315 4.0 4.0 0.00 0.00 0.00 19 1013.8
20170818021142 88 315 1.0 2.0 0.00 0.00 0.00 20 1013.8
20170818020637 89 315 2.0 9.0 0.00 0.00 0.00 22 1013.8
20170818020132 90 315 0.0 2.0 0.00 0.00 0.00 23 1014.0
20170818015626 89 315 0.0 1.0 0.00 0.00 0.00 23 1014.1
20170818015122 89 315 0.0 1.0 0.00 0.00 0.00 23 1014.0
20170818014616 89 315 0.0 1.0 0.00 0.00 0.00 23 1014.0
20170818014111 89 315 0.0 1.0 0.00 0.00 0.00 24 1013.8
20170818013839 89 315 1.0 2.0 0.00 0.00 0.00 24 1013.8
20170818013606 89 315 1.0 2.0 0.00 0.00 0.00 24 1013.8
20170818013101 89 315 1.0 1.0 0.00 0.00 0.00 25 1014.0
20170818012555 89 315 1.0 1.0 0.00 0.00 0.00 23 1014.0
20170818012050 89 315 0.0 0.0 0.00 0.00 0.00 23 1013.8
20170818011545 88 315 0.0 1.0 0.00 0.00 0.00 24 1013.9
20170818011040 88 315 1.0 3.0 0.00 0.00 0.00 24 1013.8
20170818010535 88 315 1.0 3.0 0.00 0.00 0.00 25 1013.8
20170818010030 88 315 3.0 3.0 0.00 0.00 0.00 24 1013.8
20170818005524 88 315 1.0 1.0 0.00 0.00 0.00 28 1013.8
20170818005019 88 315 1.0 4.0 0.00 0.00 0.00 26 1013.8
20170818004514 88 315 4.0 4.0 0.00 0.00 0.00 25 1013.8
20170818004009 89 315 3.0 4.0 0.00 0.00 0.00 24 1013.9
20170818003504 89 315 3.0 4.0 0.00 0.00 0.00 23 1014.0
20170818002958 89 315 2.0 5.0 0.00 0.00 0.00 24 1014.0
20170818002453 89 315 1.0 3.0 0.00 0.00 0.00 24 1013.9
20170818001948 89 315 3.0 5.0 0.00 0.00 0.00 24 1014.1
20170818001443 89 315 2.0 4.0 0.00 0.00 0.00 24 1014.1
20170818000938 89 315 1.0 3.0 0.00 0.00 0.00 23 1014.3
20170817235924 89 315 3.0 4.0 0.00 0.00 0.00 25 1014.3
20170817235419 89 315 3.0 4.0 0.00 0.00 0.00 26 1014.3
20170817234914 89 315 2.0 5.0 0.00 0.00 0.00 23 1014.2
20170817234409 89 315 5.0 5.0 0.00 0.00 0.00 24 1014.5
20170817233904 88 315 1.0 5.0 0.00 0.00 0.00 27 1014.5
20170817233358 88 315 5.0 5.0 0.00 0.00 0.00 26 1014.5
20170817232853 89 315 4.0 5.0 0.00 0.00 0.00 26 1014.6
20170817232348 89 315 4.0 5.0 0.00 0.00 0.00 25 1014.7
20170817231843 90 315 2.0 3.0 0.00 0.00 0.00 25 1014.8
20170817231338 90 315 2.0 6.0 0.00 0.00 0.00 23 1014.9
20170817230833 90 315 1.0 1.0 0.00 0.00 0.00 23 1014.9
20170817230328 90 315 5.0 5.0 0.00 0.00 0.00 24 1014.9
20170817225822 89 315 0.0 5.0 0.00 0.00 0.00 24 1014.9
20170817225317 89 315 4.0 4.0 0.00 0.00 0.00 25 1015.0
20170817224812 88 315 0.0 2.0 0.00 0.00 0.00 27 1014.9
20170817224307 88 315 2.0 4.0 0.00 0.00 0.00 26 1015.1
20170817223801 88 315 1.0 2.0 0.00 0.00 0.00 25 1015.2
20170817223256 88 315 1.0 4.0 0.00 0.00 0.00 25 1015.2
20170817222752 88 315 8.0 8.0 0.00 0.00 0.00 26 1015.2
20170817222246 87 315 2.0 4.0 0.00 0.00 0.00 26 1015.3
20170817221741 87 315 5.0 6.0 0.00 0.00 0.00 27 1015.4
20170817221236 87 315 5.0 6.0 0.00 0.00 0.00 27 1015.4
20170817220730 86 315 4.0 5.0 0.00 0.00 0.00 27 1015.4
20170817220225 86 315 5.0 6.0 0.00 0.00 0.00 26 1015.5
20170817215720 86 315 1.0 5.0 0.00 0.00 0.00 27 1015.5
20170817215215 86 315 3.0 5.0 0.00 0.00 0.00 28 1015.6
20170817214710 86 315 5.0 6.0 0.00 0.00 0.00 27 1015.6
20170817214205 85 315 1.0 8.0 0.00 0.00 0.00 27 1015.6
20170817213700 85 315 2.0 6.0 0.00 0.00 0.00 27 1015.7
20170817213154 85 315 4.0 8.0 0.00 0.00 0.00 28 1015.8
20170817212649 85 315 4.0 7.0 0.00 0.00 0.00 28 1015.7
20170817212144 85 315 3.0 8.0 0.00 0.00 0.00 30 1015.8
20170817211639 85 315 6.0 7.0 0.00 0.00 0.00 27 1015.9
20170817211133 85 315 2.0 7.0 0.00 0.00 0.00 27 1015.9
20170817210628 85 315 5.0 7.0 0.00 0.00 0.00 29 1016.0
20170817210123 85 315 6.0 7.0 0.00 0.00 0.00 28 1016.1
20170817205618 85 315 2.0 6.0 0.00 0.00 0.00 30 1016.1
20170817205113 84 315 4.0 4.0 0.00 0.00 0.00 30 1016.0
20170817204608 84 315 1.0 7.0 0.00 0.00 0.00 30 1016.1
20170817204102 84 315 2.0 6.0 0.00 0.00 0.00 31 1016.2
20170817203557 83 315 4.0 6.0 0.00 0.00 0.00 29 1016.2
20170817203052 83 315 5.0 7.0 0.00 0.00 0.00 32 1016.2
20170817202547 83 315 2.0 6.0 0.00 0.00 0.00 31 1016.4
20170817202042 83 315 4.0 5.0 0.00 0.00 0.00 32 1016.4
20170817201536 83 315 3.0 8.0 0.00 0.00 0.00 32 1016.4
20170817201031 83 315 6.0 6.0 0.00 0.00 0.00 31 1016.5
20170817200526 83 315 4.0 5.0 0.00 0.00 0.00 33 1016.5
20170817200021 83 315 3.0 7.0 0.00 0.00 0.00 34 1016.4
20170817195516 82 315 2.0 6.0 0.00 0.00 0.00 33 1016.7
20170817195011 82 315 2.0 3.0 0.00 0.00 0.00 33 1016.7
20170817194505 82 315 3.0 7.0 0.00 0.00 0.00 34 1016.9
20170817194000 82 315 2.0 7.0 0.00 0.00 0.00 33 1017.0
20170817193455 81 315 2.0 5.0 0.00 0.00 0.00 33 1016.8
20170817192950 81 315 4.0 7.0 0.00 0.00 0.00 35 1016.9
20170817192445 81 315 1.0 6.0 0.00 0.00 0.00 34 1016.6
20170817191939 81 315 2.0 4.0 0.00 0.00 0.00 34 1016.7
20170817191434 81 315 3.0 6.0 0.00 0.00 0.00 35 1016.9
20170817190929 81 315 5.0 6.0 0.00 0.00 0.00 35 1016.8
20170817190424 80 315 1.0 5.0 0.00 0.00 0.00 34 1016.9
20170817185919 80 315 5.0 5.0 0.00 0.00 0.00 38 1016.9
20170817185414 80 315 4.0 4.0 0.00 0.00 0.00 36 1016.9
20170817184908 79 315 4.0 4.0 0.00 0.00 0.00 37 1017.1
20170817184403 79 315 4.0 6.0 0.00 0.00 0.00 37 1017.1
20170817183858 79 315 6.0 6.0 0.00 0.00 0.00 37 1017.1
20170817183353 79 315 3.0 6.0 0.00 0.00 0.00 38 1017.2
20170817182850 79 315 6.0 8.0 0.00 0.00 0.00 38 1017.2
20170817182342 79 315 3.0 6.0 0.00 0.00 0.00 40 1017.3
20170817181837 78 315 3.0 8.0 0.00 0.00 0.00 41 1017.3
20170817181332 78 315 4.0 6.0 0.00 0.00 0.00 40 1017.4
20170817180827 77 315 6.0 9.0 0.00 0.00 0.00 41 1017.4
20170817180322 77 315 6.0 7.0 0.00 0.00 0.00 40 1017.5
20170817175817 77 315 4.0 8.0 0.00 0.00 0.00 38 1017.4
20170817175311 77 315 3.0 5.0 0.00 0.00 0.00 40 1017.4
20170817174806 77 315 5.0 5.0 0.00 0.00 0.00 41 1017.4
20170817174301 76 315 2.0 6.0 0.00 0.00 0.00 39 1017.3
20170817173756 76 315 1.0 7.0 0.00 0.00 0.00 40 1017.4
20170817173251 76 315 2.0 5.0 0.00 0.00 0.00 42 1017.5
20170817172745 76 315 2.0 6.0 0.00 0.00 0.00 43 1017.6
20170817172241 76 315 2.0 6.0 0.00 0.00 0.00 40 1017.5
20170817171735 76 315 2.0 5.0 0.00 0.00 0.00 43 1017.5
20170817171230 75 315 1.0 5.0 0.00 0.00 0.00 43 1017.5
20170817170725 75 315 4.0 6.0 0.00 0.00 0.00 43 1017.5
20170817170220 75 315 5.0 6.0 0.00 0.00 0.00 44 1017.4
20170817165714 74 315 4.0 4.0 0.00 0.00 0.00 44 1017.5
20170817165209 74 315 3.0 5.0 0.00 0.00 0.00 45 1017.5
20170817164704 74 315 4.0 6.0 0.00 0.00 0.00 45 1017.4
20170817164159 74 315 4.0 5.0 0.00 0.00 0.00 45 1017.5
20170817163654 74 315 2.0 5.0 0.00 0.00 0.00 45 1017.5
20170817163149 74 315 4.0 6.0 0.00 0.00 0.00 45 1017.5
20170817162643 74 315 3.0 5.0 0.00 0.00 0.00 43 1017.4
20170817162138 73 315 3.0 6.0 0.00 0.00 0.00 46 1017.3
20170817161633 73 315 3.0 6.0 0.00 0.00 0.00 46 1017.5
20170817161128 73 315 4.0 5.0 0.00 0.00 0.00 47 1017.3
20170817160623 73 315 5.0 8.0 0.00 0.00 0.00 47 1017.3
20170817160117 72 315 5.0 7.0 0.00 0.00 0.00 46 1017.2
20170817155612 72 315 3.0 7.0 0.00 0.00 0.00 49 1017.3
20170817155107 72 315 3.0 6.0 0.00 0.00 0.00 49 1017.2
20170817154602 71 315 5.0 7.0 0.00 0.00 0.00 49 1016.9
20170817154057 71 315 4.0 7.0 0.00 0.00 0.00 52 1017.1
20170817153551 70 315 1.0 2.0 0.00 0.00 0.00 58 1017.0
20170817153046 69 315 1.0 1.0 0.00 0.00 0.00 60 1017.2
20170817152541 69 315 1.0 1.0 0.00 0.00 0.00 61 1017.1
20170817152036 68 315 0.0 1.0 0.00 0.00 0.00 62 1017.3
20170817151531 67 315 0.0 1.0 0.00 0.00 0.00 64 1017.2
20170817151026 66 315 1.0 2.0 0.00 0.00 0.00 65 1017.1
20170817150012 65 315 1.0 2.0 0.00 0.00 0.00 68 1017.2
20170817145507 64 315 1.0 3.0 0.00 0.00 0.00 68 1017.0
20170817145002 64 315 3.0 3.0 0.00 0.00 0.00 70 1017.1
20170817144457 63 315 1.0 3.0 0.00 0.00 0.00 71 1016.9
20170817143951 63 315 3.0 3.0 0.00 0.00 0.00 71 1017.0
20170817143446 63 315 2.0 3.0 0.00 0.00 0.00 71 1016.9